Погода в Рославле

Погода в Рославле : погода сейчас, прогноз погоды и архив. Всё, что Вы хотите узнать о погоде в Рославле!

Хотите узнать прогноз погоды в Рославле? Тогда Вам сюда: Погода в Рославле

Поиск расширенной информации на нашем сайте:

Другие новости

Новости СМИ2

Главная страница сайта

Новости сайта

03.07.2017

Напоминаем, что на нашем специализированном сайте Метеоцентр.Азия вы можете получить высокодетализированные автоматические прогнозы погоды по пунктам России, СНГ и мира в авиационном формате (включающие направление и скорость ветра, видимость, явления погоды, количество и форму облачности, нижнюю и верхнюю границу облачности).

Рекомендуем: аренда дома одесса

Погода в Рославле - сегодня

Время (UTC), дата Ветер
(°,м/с) 
Видим.   Явления Облачность Т
(°С)
Тd
(°С)
f(%) Тe
(°С)
Pmin
(гПа)
dP
(гПа)
Po
(мм)
O2
(г/м3)
Тmin Tmax R s Состояние
почвы
12 20.08.17 180 (Ю) 5{11}  20000 м    1/1 1000 м 
[Cu hum]
+30.1 +7.4 24 +30  1019.7  -0.8  746  269           
15 20.08.17 150 (ЮВ) 3{10}  20000 м    1/0 верхняя 
[Ci fib]
+27.9 +8.6 30 +28  1018.9  -1  745  271           
18 20.08.17 120 (ЮВ) 50000 м    3/0 верхняя 
[Ci fib]
+20.5 +12.2 59 +25  1019.3  -0.2  745  277    +30.1       
21 20.08.17 120 (ЮВ) 50000 м    ясно 
+16.9 +12.1 73 +22  1018.7  -1  744  280           
00 21.08.17 120 (ЮВ) 50000 м    ясно 
+14.4 +11.3 82 +18  1017.8  -1  743  282           
03 21.08.17 120 (ЮВ) 20000 м    3/0 верхняя 
[Ci fib]
+13.2 +10.4 83 +15  1017.2  -0.8  743  284  +13.2         
06 21.08.17 140 (ЮВ) 20000 м    ясно 
+20.5 +12 58 +25  1015.8  -0.7  742  276  +13.2        сухая 
09 21.08.17 140 (ЮВ) 20000 м    4/3 1000 м средняя 
[Cu hum|Ac trans]
+27.7 +12.9 40 +33  1014.3  -0.8  742  269           
12 21.08.17 140 (ЮВ) 5{10}  20000 м    3/3 1000 м 
[Cu med, cong]
+30.6 +8.4 25 +31  1012.6  -1.5  741  267           
15 21.08.17 140 (ЮВ) 4{10}  20000 м    3/1 1000 м средняя 
[Cu med, cong|Ac trans]
+29 +8.8 28 +29  1011.3  -1.4  740  268           
18 21.08.17 130 (ЮВ) 15000 м    8/3 1000 м средняя, верхняя 
[Cu med, cong|Ac trans|Cs]
+21.5 +11.4 53 +25  1012.5  0.6  740  274    +30.9       
21 21.08.17 260 (З) 25000 м  в посл. час ливневой дождь  9/4 600 м средняя 
[Cu med, cong|Ac cuf]
+17 +14.2 84 +25  1013.8  0.8  741  278           
00 22.08.17 020 (С) 30000 м  {ливн. осадки}  6/0 средняя, верхняя 
[Ac trans|Ci fib]
+15.7 +13.6 87 +23  1013  -0.9  740  279           
03 22.08.17 020 (С) 15000 м    9/0 средняя, верхняя 
[Ac trans|Ci]
+14.3 +13 92 +22  1011.7  -1.4  739  280  +14.2    0.0     
06 22.08.17 120 (ЮВ) 20000 м    9/4 1000 м средняя 
[Cu med, cong|Ac trans]
+18.5 +13.7 74 +26  1010.8  -0.5  739  276  +14    0.0    сухая 
09 22.08.17 150 (ЮВ) 20000 м    9/3 1000 м средняя 
[Cu med, cong|Ac trans]
+22.6 +11.4 49 +26  1009.8  -0.6  738  273           
12 22.08.17 090 (В) 20000 м    8/3 1000 м средняя, верхняя 
[Cu med, cong|Ac trans|Ci fib]
+26.9 +12.2 40 +32  1007.6  -1.8  737  268           
15 22.08.17 120 (ЮВ) 20000 м    9/3 1000 м средняя, верхняя 
[Cu med, cong|Ac trans|Cs]
+24.1 +13.3 51 +30  1006.6  -1.2  736  270           
18 22.08.17 150 (ЮВ) 50000 м    9/4 1000 м средняя 
[Cu med, cong|Ac trans]
+20.5 +14.5 68 +29  1006.3  -0.6  735  273    +27.5       
21 22.08.17 340 (С) 30000 м    9/6 600 м средняя 
[Cu Sc|Ac trans]
+17.5 +16.3 93 +30  1004.3  -2.1  734  274           
00 23.08.17 290 (З) 15000 м    9/9 600 м 
[Cu Sc]
+16.4 +15.5 94 +28  1003.1  -1.3  733  275           
03 23.08.17 100 (В) 8000 м  слаб. дождь  10/10 300 м 
[Frnb|Ns]
+15.6 +14.9 96 +25  1001.4  -1.7  732  276  +15.6       
06 23.08.17 110 (В) 19000 м  {дождь}  10/0 средняя 
[Ac As]
+16.2 +15 93 +26  1000.1  -1.2  731  275  +15.6      влажная 
09 23.08.17 130 (ЮВ) 19000 м    10/8 600 м средняя 
[Cu Sc|Ac As]
+17.4 +15.8 90 +29  1000.2  0.2  731  273           
12 23.08.17 240 (ЮЗ) 20000 м  {ливн. осадки}  9/9 300 м 
[Cu Sc]
+14.3 +13.1 92 +20  1002.2  1.7  732  278           
Время (UTC), дата Ветер
(°,м/с) 
Видим.   Явления Облачность Т
(°С)
Тd
(°С)
f(%) Тe
(°С)
Pmin
(гПа)
dP
(гПа)
Po
(мм)
O2
(г/м3)
Тmin Tmax R s Состояние
почвы

Для получения пояснительной информации подведите курсор к названию столбца.

ПОГОДА в Рославле - архив

Всё, что Вы хотите узнать о погоде в Рославле - удобно и подробно!

Выберите нужную дату (начиная с 1 января 2015* года) и нажмите кнопку "Найти".
Будут отображены архивные сводки погоды по пункту Рославль, начиная с указанной даты.


Отображать данные в формате CSV (для использования в таблицах Excel)


Внимание! Наш архив погоды предназначен исключительно для личного некоммерческого использования в познавательных целях. Если Вам необходимы официальные справки о состоянии погоды (для производственных, юридических, коммерческих и т.п. целей), обращайтесь в органы Росгидромета.

*Примечание: данная дата относится к архиву по метеостанциям СССР (Россия, СНГ, Балтия).
Архив по метеостанциям Зарубежной Европы и Азии (кроме Китая) хранится 10 дней, по другим регионам земного шара (Китай, Африка, Америка, Австралия, Океания) - 1 день.

Рославль - район местоположения метеостанции


Название, широта, долгота, высота метеостанции:
Рославль 53.9°ш. 32.8°д. 224 м над ур. моря [Российская Федерация]

Дополнительная информация

В oтличие oт бoльшинства пoгoдных сайтoв мы публикуем пoдрoбную метеoинфoрмацию в детальнoм прoфессиoнальнoм фoрмате.

Характеристики температуры и влажнoсти вoздуха измеряются на высoте 2 м в тени вдали oт зданий и деревьев.
Скoрoсть ветра измеряется на высoте 10 м (на урoвне рoста челoвека скoрoсть ветра ниже в 1.5-2 раза). Если метеoстанция нахoдится в гoрoде или в лесу, тo скoрoсть ветра занижена на 2-4 м/с пo сравнению с oткрытым местoм. Скoрoсть ветра над акватoриями крупных рек и oзёр, а также на вершинах хoлмoв на 2-5 м/с выше, чем в oбычных услoвиях.
Атмoсфернoе давление в разных тoчках местнoсти мoжет значительнo oтличаться oт давления на метеoстанции, в зависимoсти oт услoвий рельефа (при пoдъёме на 10 м давление пoнижается примернo на 1 мм рт.ст.).